Location: Arapaho Elementary School
(32.9607°N, 96.7625°W)
Time: 11:39:48
(UTC+00:00)

Cosmos 2228 Rocket - Pass Details

Date: 06 July 2022
Orbit: 618 x 651 km, 82.5° (Epoch: 09 August)

Event Time Altitude Azimuth Distance (km) Brightness Sun altitude
Rises 09:57:53 0° 350° (N) 2,920 7.0 -15.8°
Reaches altitude 10° 10:00:07 10° 348° (NNW) 2,014 6.1 -15.4°
Maximum altitude 10:04:33 68° 266° (W) 686 3.1 -14.7°
Enters shadow 10:08:52 11° 184° (S) 1,966 5.2 -14.0°
